Torna al catalogo

ARIANE 1 DEB

AttivoSSO
NORAD 17203·DEBRIS·🇫🇷 France

Lanciato Feb 22, 1986 da Guiana Space Centre

Loading…

Prossimi Passaggi (prossime 24 ore)

TLE

AggiornatoSource: Space-Track

Epoca: Sep 14, 2026, 00:46 UTC

1 17203U 86019BF  26257.03215247  .00000107  00000-0  81654-4 0  9999
2 17203  98.6094 276.2366 0127930 254.8502 131.2051 14.07869140 38443

Traccia ARIANE 1 DEB in tempo reale con AllMySat

Download on the App Store